STARLINK-1047, 44752

Orbit data source: Space-Track

STARLINK-1047, 44752 is a payload satellite owned by SpaceX/Seattle (US) in LEO that was launched on Mon, 11 Nov 2019 UTC via an FALCON 9 launch vehicle from the Air Force Eastern Test Range (AFETR). Payload-class satellites include a variety of spacecraft equipped with specific instruments for various scientific and technological missions. These include communications satellites like Starlink; space stations such as the ISS; scientific satellites like the Hubble; Earth observation satellites from companies like Planet Labs, Umbra, and HawkEye 360; GPS; miniature CubeSats for education and research; and military/defense satellites.

Loading next visibility...
Identifier
44752, 2019-074AR
Orbit
LEO
Country
Flag of USUS
Related business
Manufacturer
SpaceX/Seattle
Mission
Partially operational Commercial Communications
Bus & Motor
STARLINK, Unknown motor
Mass
260 kg wet, ~248 kg dry
Launch date (UTC)
2019-11-11 (6 years ago)
Launch vehicle
FALCON 9
Launch site
Air Force Eastern Test Range (AFETR)
Object type
Payload
Rocket body
Debris
Shape & HBR
Box + 1 Pan, 10.1 m
Radar Cross Section
13.562 m², Large (>1 m²)

Expand to show TLE details & history
Last TLE update: 13 hours ago

TLE from 13 hours ago
0 STARLINK-1047
1 44752U 19074AR  25286.58749508  .00014295  00000-0  51665-3 0  9999
2 44752  53.0709 111.2260 0005106 116.2672 243.8852 15.28713815326811
Epoch: 2025-10-13T14:05Z
TLE epoch observation values (Epoch: 2025-10-13T14:05:59.574Z)
Latitude
-0.00005°
Longitude
-122.6604°
Altitude
482.088 km
Speed
7.625 km/s
True Right ascension
07h 24m 54s
True Declination
0° 00' 00"
Sunlit
Object was in daylight at epoch
Visualization orbit readout
Latitude
Unknown
Longitude
Unknown
Altitude
Unknown
Speed
Unknown
Apparent Right ascension
Unknown
Apparent Declination
Unknown
Sunlit
N/A
Visualization observer readout
Local Sidereal Time
21:34:46
Azimuth
Unknown
Elevation
Unknown
Doppler factor
Unknown
Orbital elements
Apogee altitude
483.429 km
Perigee altitude
476.425 km
Semi-major axis
6,858.064 km
Eccentricity
0.00051
Inclination
53.0709°
RAAN
111.226°
Arg. of periapsis
116.2672°
True anomaly
243.83268°
Mean anomaly
243.8852°
Eccentric anomaly
243.85894°
Mean motion
3.82156 °/min
Orbital period
94.2 mins
BSTAR
0.00051665
Loading maneuver chart data...
Computing Atmospheric mass density...

Documentation

Showing up to 5 results
|